Simultaneous Nadir Overpasses (SNOs) Predictions

Prediction of SNOs between NOAA-19 and NPP Satellite Orbit:

Table of predicted SNOs for the next 14.0 days since TLE Epoch: 2/27/2016
Index Date (NOAA-19) Time (NOAA-19) Lat,Lon (NOAA-19) SZA (NOAA-19 ) Date (NPP) Time (NPP) Lat,Lon (NPP) SZA (NPP ) Distance(km) Time Diff (sec)
1 03/05/2016 00:22:35 81.02, 121.12 90.89 03/05/2016 00:23:40 81.02, 121.10 90.86 0.49 65
2 03/05/2016 01:13:31 -81.02, -71.45 89.15 03/05/2016 01:14:25 -81.01, -71.58 89.17 2.27 54
3 03/05/2016 02:04:37 81.02, 95.69 90.85 03/05/2016 02:05:10 81.02, 95.67 90.84 0.36 33
4 03/05/2016 02:55:33 -81.02, -96.88 89.19 03/05/2016 02:55:55 -81.02, -97.01 89.18 2.27 22
5 03/05/2016 03:46:38 81.02, 70.25 90.81 03/05/2016 03:46:39 81.02, 70.23 90.82 0.39 1
6 03/05/2016
